• In Slovakia
  • List of Countries
  • For 7 days
  • Water Temperature
  • Satellite Maps
  • Weather Map
  • Weather Widgets
  • user-avatar
    Login

    Hourly Weather Idzhewan

    Today, 17 October, Wednesday

    Time Temperature Precipitation Wind Pressure Humidity
    00:00 +13°C° 0 mm 1 mps 699 mmHg 87%
    01:00 +13°C° 0 mm 1 mps 699 mmHg 88%
    02:00 +11°C° 0 mm 0 mps 699 mmHg 89%
    03:00 +12°C° 0 mm 1 mps 699 mmHg 91%
    04:00 +12°C° 0 mm 1 mps 699 mmHg 91%
    05:00 +12°C° 0 mm 1 mps 699 mmHg 91%
    06:00 +12°C° 0 mm 1 mps 699 mmHg 91%
    07:00 +13°C° 0 mm 1 mps 699 mmHg 82%
    08:00 +15°C° 0 mm 1 mps 699 mmHg 73%
    09:00 +18°C° 0 mm 1 mps 699 mmHg 64%
    10:00 +19°C° 0 mm 1 mps 699 mmHg 59%
    11:00 +19°C° 0 mm 2 mps 699 mmHg 55%
    12:00 +20°C° 0 mm 2 mps 699 mmHg 51%
    13:00 +20°C° 0 mm 2 mps 698 mmHg 51%
    14:00 +20°C° 0 mm 2 mps 698 mmHg 51%
    15:00 +20°C° 0 mm 3 mps 698 mmHg 53%
    16:00 +19°C° 0 mm 2 mps 698 mmHg 62%
    17:00 +17°C° 0 mm 2 mps 698 mmHg 71%
    18:00 +15°C° 0 mm 1 mps 698 mmHg 80%
    19:00 +15°C° 0 mm 1 mps 698 mmHg 83%
    20:00 +14°C° 0 mm 1 mps 698 mmHg 86%
    21:00 +14°C° 0 mm 1 mps 698 mmHg 89%
    22:00 +13°C° 0 mm 1 mps 698 mmHg 89%
    23:00 +13°C° 0 mm 1 mps 697 mmHg 89%

    Tomorrow, 18 October, Thursday

    Time Temperature Precipitation Wind Pressure Humidity
    00:00 +13°C° 0 mm 1 mps 697 mmHg 89%
    01:00 +13°C° 0 mm 1 mps 697 mmHg 88%
    02:00 +13°C° 0 mm 1 mps 697 mmHg 87%
    03:00 +12°C° 0 mm 1 mps 697 mmHg 86%
    04:00 +12°C° 0 mm 1 mps 697 mmHg 84%
    05:00 +12°C° 0 mm 1 mps 696 mmHg 82%
    06:00 +12°C° 0 mm 1 mps 696 mmHg 80%
    07:00 +14°C° 0 mm 1 mps 696 mmHg 70%
    08:00 +16°C° 0 mm 1 mps 697 mmHg 60%
    09:00 +19°C° 0 mm 1 mps 697 mmHg 50%
    10:00 +21°C° 0 mm 1 mps 697 mmHg 46%
    11:00 +22°C° 0 mm 1 mps 697 mmHg 41%
    12:00 +23°C° 0 mm 2 mps 697 mmHg 36%
    13:00 +23°C° 0 mm 2 mps 696 mmHg 36%
    14:00 +23°C° 0 mm 2 mps 696 mmHg 36%
    15:00 +23°C° 0 mm 2 mps 696 mmHg 37%
    16:00 +20°C° 0 mm 2 mps 696 mmHg 45%
    17:00 +19°C° 0 mm 1 mps 696 mmHg 53%
    18:00 +16°C° 0 mm 1 mps 696 mmHg 61%
    19:00 +16°C° 0 mm 1 mps 696 mmHg 64%
    20:00 +15°C° 0 mm 1 mps 696 mmHg 68%
    21:00 +15°C° 0 mm 1 mps 696 mmHg 71%
    22:00 +14°C° 0 mm 1 mps 696 mmHg 73%
    23:00 +14°C° 0 mm 1 mps 696 mmHg 76%

    Day after tomorrow, 19 October, Friday

    Time Temperature Precipitation Wind Pressure Humidity
    00:00 +12°C° 0 mm 0 mps 696 mmHg 79%
    01:00 +13°C° 0 mm 1 mps 696 mmHg 80%
    02:00 +13°C° 0 mm 1 mps 696 mmHg 81%
    03:00 +12°C° 0 mm 1 mps 696 mmHg 82%
    04:00 +12°C° 0 mm 1 mps 696 mmHg 82%
    05:00 +12°C° 0 mm 1 mps 696 mmHg 81%
    06:00 +12°C° 0 mm 1 mps 696 mmHg 81%
    07:00 +14°C° 0 mm 1 mps 696 mmHg 73%
    08:00 +16°C° 0 mm 1 mps 697 mmHg 65%
    09:00 +19°C° 0 mm 1 mps 697 mmHg 57%
    10:00 +20°C° 0 mm 1 mps 697 mmHg 53%
    11:00 +21°C° 0 mm 1 mps 697 mmHg 49%
    12:00 +21°C° 0 mm 2 mps 696 mmHg 45%
    13:00 +21°C° 0 mm 2 mps 696 mmHg 45%
    14:00 +21°C° 0 mm 2 mps 696 mmHg 46%
    15:00 +23°C° 0 mm 2 mps 695 mmHg 46%
    16:00 +20°C° 0 mm 2 mps 695 mmHg 55%
    17:00 +19°C° 0 mm 1 mps 695 mmHg 64%
    18:00 +16°C° 0 mm 1 mps 695 mmHg 73%
    19:00 +16°C° 0 mm 1 mps 695 mmHg 75%
    20:00 +15°C° 0 mm 1 mps 695 mmHg 78%
    21:00 +15°C° 0 mm 1 mps 696 mmHg 80%
    22:00 +13°C° 0 mm 0 mps 696 mmHg 81%
    23:00 +13°C° 0 mm 0 mps 695 mmHg 81%

    20 October, Saturday

    Time Temperature Precipitation Wind Pressure Humidity
    00:00 +13°C° 0 mm 0 mps 695 mmHg 82%
    01:00 +13°C° 0 mm 0 mps 695 mmHg 81%
    02:00 +12°C° 0 mm 0 mps 695 mmHg 81%
    03:00 +12°C° 0 mm 0 mps 695 mmHg 80%
    04:00 +13°C° 0 mm 1 mps 695 mmHg 78%
    05:00 +13°C° 0 mm 1 mps 695 mmHg 77%
    06:00 +13°C° 0 mm 1 mps 695 mmHg 75%
    07:00 +15°C° 0 mm 1 mps 695 mmHg 67%
    08:00 +18°C° 0 mm 1 mps 695 mmHg 60%
    09:00 +20°C° 0 mm 1 mps 696 mmHg 52%
    10:00 +21°C° 0 mm 1 mps 695 mmHg 49%
    11:00 +21°C° 0 mm 2 mps 695 mmHg 46%
    12:00 +23°C° 0 mm 2 mps 695 mmHg 42%
    13:00 +23°C° 0 mm 2 mps 694 mmHg 42%
    14:00 +24°C° 0 mm 2 mps 694 mmHg 42%
    15:00 +24°C° 0 mm 2 mps 693 mmHg 43%
    16:00 +22°C° 0 mm 1 mps 693 mmHg 50%
    17:00 +20°C° 0 mm 1 mps 693 mmHg 57%
    18:00 +19°C° 0 mm 1 mps 693 mmHg 64%
    19:00 +18°C° 0 mm 1 mps 693 mmHg 64%
    20:00 +18°C° 0 mm 1 mps 693 mmHg 65%
    21:00 +16°C° 0 mm 1 mps 694 mmHg 65%
    22:00 +16°C° 0 mm 1 mps 694 mmHg 65%
    23:00 +16°C° 0 mm 1 mps 693 mmHg 65%

    21 October, Sunday

    Time Temperature Precipitation Wind Pressure Humidity
    00:00 +15°C° 0 mm 1 mps 693 mmHg 66%
    01:00 +15°C° 0 mm 1 mps 693 mmHg 65%
    02:00 +15°C° 0 mm 1 mps 693 mmHg 65%
    03:00 +15°C° 0 mm 1 mps 693 mmHg 65%
    04:00 +14°C° 0 mm 1 mps 693 mmHg 65%
    05:00 +14°C° 0 mm 1 mps 693 mmHg 64%
    06:00 +14°C° 0 mm 1 mps 693 mmHg 64%
    07:00 +16°C° 0 mm 1 mps 693 mmHg 59%
    08:00 +18°C° 0 mm 1 mps 693 mmHg 54%
    09:00 +20°C° 0 mm 1 mps 693 mmHg 49%
    10:00 +21°C° 0 mm 1 mps 693 mmHg 46%
    11:00 +21°C° 0 mm 2 mps 693 mmHg 43%
    12:00 +23°C° 0 mm 2 mps 693 mmHg 40%
    13:00 +23°C° 0 mm 2 mps 692 mmHg 40%
    14:00 +23°C° 0 mm 2 mps 692 mmHg 40%
    15:00 +23°C° 0 mm 2 mps 692 mmHg 40%
    16:00 +21°C° 0 mm 2 mps 691 mmHg 45%
    17:00 +20°C° 0 mm 1 mps 691 mmHg 50%
    18:00 +18°C° 0 mm 1 mps 691 mmHg 55%
    19:00 +18°C° 0 mm 1 mps 692 mmHg 57%
    20:00 +16°C° 0 mm 0 mps 692 mmHg 58%
    21:00 +16°C° 0 mm 0 mps 692 mmHg 59%
    22:00 +15°C° 0 mm 0 mps 692 mmHg 60%
    23:00 +15°C° 0 mm 0 mps 692 mmHg 62%

    22 October, Monday

    Time Temperature Precipitation Wind Pressure Humidity
    00:00 +15°C° 0 mm 0 mps 692 mmHg 63%
    01:00 +15°C° 0 mm 1 mps 692 mmHg 65%
    02:00 +15°C° 0 mm 1 mps 692 mmHg 66%
    03:00 +15°C° 0 mm 1 mps 692 mmHg 67%
    04:00 +15°C° 0 mm 1 mps 692 mmHg 68%
    05:00 +14°C° 0 mm 1 mps 692 mmHg 68%
    06:00 +14°C° 0 mm 1 mps 692 mmHg 69%
    07:00 +16°C° 0 mm 1 mps 692 mmHg 62%
    08:00 +18°C° 0 mm 1 mps 693 mmHg 55%
    09:00 +20°C° 0 mm 1 mps 693 mmHg 48%
    10:00 +20°C° 0 mm 2 mps 693 mmHg 44%
    11:00 +21°C° 0 mm 2 mps 693 mmHg 41%
    12:00 +24°C° 0 mm 3 mps 693 mmHg 37%
    13:00 +24°C° 0 mm 3 mps 693 mmHg 37%
    14:00 +24°C° 0 mm 3 mps 693 mmHg 37%
    15:00 +24°C° 0 mm 3 mps 693 mmHg 37%
    16:00 +21°C° 0 mm 2 mps 693 mmHg 42%
    17:00 +20°C° 0 mm 2 mps 693 mmHg 47%
    18:00 +19°C° 0 mm 1 mps 693 mmHg 52%
    19:00 +18°C° 0 mm 1 mps 693 mmHg 53%
    20:00 +17°C° 0 mm 2 mps 694 mmHg 54%
    21:00 +17°C° 0 mm 2 mps 694 mmHg 55%
    22:00 +16°C° 0 mm 2 mps 694 mmHg 55%
    23:00 +16°C° 0 mm 2 mps 694 mmHg 56%
    Show more